| time (UTC) | temp C | wind direction | speed KPH | gust KPH | rain 1hr cm | rain 24hr cm | rain mn cm | humidity % | barometer mb |
| 20260504031525 | 13 | 263 | 1.6 | 16.1 | 0.00 | 0.00 | 0.00 | 84 | 1032.3 |
| 20260504030011 | 13 | 229 | 1.6 | 12.9 | 0.00 | 0.00 | 0.00 | 84 | 1032.3 |
| 20260504024512 | 13 | 299 | 1.6 | 8.0 | 0.00 | 0.00 | 0.00 | 80 | 1032.1 |
| 20260504023016 | 14 | 301 | 3.2 | 12.9 | 0.00 | 0.00 | 0.00 | 82 | 1032.2 |
| 20260504021522 | 14 | 326 | 4.8 | 11.3 | 0.00 | 0.00 | 0.00 | 82 | 1032.3 |
| 20260504020023 | 14 | 302 | 3.2 | 11.3 | 0.00 | 0.00 | 0.00 | 81 | 1032.4 |
| 20260504014510 | 14 | 82 | 1.6 | 8.0 | 0.00 | 0.00 | 0.00 | 79 | 1032.4 |
| 20260504013028 | 14 | 230 | 4.8 | 12.9 | 0.00 | 0.00 | 0.00 | 79 | 1032.5 |
| 20260504011520 | 14 | 234 | 3.2 | 14.5 | 0.00 | 0.00 | 0.00 | 80 | 1032.6 |
| 20260504010023 | 14 | 316 | 1.6 | 11.3 | 0.00 | 0.00 | 0.00 | 81 | 1032.7 |
| 20260504004531 | 14 | 344 | 4.8 | 12.9 | 0.00 | 0.00 | 0.00 | 80 | 1032.7 |
| 20260504003009 | 14 | 222 | 4.8 | 20.9 | 0.00 | 0.00 | 0.00 | 77 | 1032.9 |
| 20260504001517 | 15 | 270 | 4.8 | 16.1 | 0.00 | 0.00 | 0.00 | 79 | 1032.9 |
| 20260504000020 | 15 | 117 | 3.2 | 11.3 | 0.00 | 0.00 | 0.00 | 79 | 1033.2 |
| 20260503234526 | 15 | 232 | 3.2 | 16.1 | 0.00 | 0.00 | 0.00 | 82 | 1033.2 |
| 20260503233027 | 15 | 259 | 1.6 | 12.9 | 0.00 | 0.00 | 0.00 | 84 | 1033.4 |
| 20260503231510 | 15 | 270 | 1.6 | 17.7 | 0.00 | 0.00 | 0.00 | 82 | 1033.4 |
| 20260503230019 | 15 | 15 | 1.6 | 9.7 | 0.00 | 0.00 | 0.00 | 83 | 1033.4 |
| 20260503224520 | 14 | 285 | 4.8 | 11.3 | 0.00 | 0.00 | 0.00 | 83 | 1033.4 |
| 20260503223026 | 14 | 271 | 3.2 | 12.9 | 0.00 | 0.00 | 0.00 | 84 | 1033.3 |
| 20260503221525 | 14 | 257 | 1.6 | 8.0 | 0.00 | 0.00 | 0.00 | 83 | 1033.3 |
| 20260503220016 | 13 | 225 | 4.8 | 12.9 | 0.00 | 0.00 | 0.00 | 84 | 1033.4 |
| 20260503214520 | 13 | 270 | 3.2 | 11.3 | 0.00 | 0.00 | 0.00 | 85 | 1033.4 |
| 20260503213026 | 13 | 257 | 1.6 | 11.3 | 0.00 | 0.00 | 0.00 | 85 | 1033.4 |
| 20260503211526 | 13 | 346 | 1.6 | 11.3 | 0.00 | 0.00 | 0.00 | 85 | 1033.4 |
| 20260503210026 | 13 | 215 | 1.6 | 12.9 | 0.00 | 0.00 | 0.00 | 85 | 1033.5 |
| 20260503204518 | 12 | 297 | 3.2 | 12.9 | 0.00 | 0.00 | 0.00 | 83 | 1033.5 |
| 20260503203042 | 12 | 56 | 1.6 | 12.9 | 0.00 | 0.00 | 0.00 | 86 | 1033.4 |
| 20260503201528 | 12 | 241 | 3.2 | 8.0 | 0.00 | 0.00 | 0.00 | 87 | 1033.3 |
| 20260503200027 | 12 | 293 | 1.6 | 9.7 | 0.00 | 0.00 | 0.00 | 86 | 1033.2 |
| 20260503194538 | 12 | 270 | 1.6 | 8.0 | 0.00 | 0.00 | 0.00 | 85 | 1032.9 |
| 20260503193018 | 12 | 307 | 1.6 | 8.0 | 0.00 | 0.00 | 0.00 | 85 | 1032.8 |
| 20260503191524 | 12 | 245 | 0.0 | 9.7 | 0.00 | 0.00 | 0.00 | 85 | 1032.6 |
| 20260503190035 | 12 | 279 | 1.6 | 14.5 | 0.00 | 0.00 | 0.00 | 85 | 1032.6 |
| 20260503190012 | 12 | 266 | 1.6 | 14.5 | 0.00 | 0.00 | 0.00 | 85 | 1032.6 |
| 20260503184519 | 12 | 232 | 1.6 | 12.9 | 0.00 | 0.00 | 0.00 | 85 | 1032.5 |
| 20260503183008 | 12 | 245 | 1.6 | 9.7 | 0.00 | 0.00 | 0.00 | 85 | 1032.6 |
| 20260503181510 | 12 | 233 | 1.6 | 6.4 | 0.00 | 0.00 | 0.00 | 86 | 1032.6 |
| 20260503180006 | 12 | 302 | 1.6 | 6.4 | 0.00 | 0.00 | 0.00 | 86 | 1032.6 |
| 20260503174510 | 12 | 278 | 1.6 | 14.5 | 0.00 | 0.00 | 0.00 | 86 | 1032.5 |
| 20260503173012 | 12 | 201 | 1.6 | 17.7 | 0.00 | 0.00 | 0.00 | 85 | 1032.4 |
| 20260503171510 | 12 | 79 | 1.6 | 8.0 | 0.00 | 0.00 | 0.00 | 86 | 1032.6 |
| 20260503081525 | 11 | 243 | 1.6 | 8.0 | 0.00 | 0.00 | 0.00 | 89 | 1032.7 |
| 20260503071516 | 11 | 240 | 0.0 | 8.0 | 0.00 | 0.00 | 0.00 | 90 | 1032.4 |
| 20260503054526 | 11 | 258 | 0.0 | 6.4 | 0.00 | 0.00 | 0.00 | 88 | 1032.4 |
| 20260503053034 | 11 | 224 | 1.6 | 12.9 | 0.00 | 0.00 | 0.00 | 87 | 1032.3 |
| 20260503051524 | 11 | 277 | 1.6 | 9.7 | 0.00 | 0.00 | 0.00 | 86 | 1032.3 |
| 20260503050024 | 12 | 240 | 0.0 | 4.8 | 0.00 | 0.00 | 0.00 | 86 | 1032.2 |
| 20260503044515 | 12 | 132 | 1.6 | 9.7 | 0.00 | 0.00 | 0.00 | 85 | 1032.3 |
| 20260503043025 | 12 | 8 | 1.6 | 8.0 | 0.00 | 0.00 | 0.00 | 84 | 1032.3 |
| 20260503041522 | 12 | 243 | 1.6 | 14.5 | 0.00 | 0.00 | 0.00 | 82 | 1032.4 |
| 20260503040033 | 13 | 264 | 1.6 | 8.0 | 0.00 | 0.00 | 0.00 | 81 | 1032.3 |
| 20260503034524 | 13 | 244 | 1.6 | 9.7 | 0.00 | 0.00 | 0.00 | 80 | 1032.5 |
| 20260503033016 | 13 | 236 | 3.2 | 8.0 | 0.00 | 0.00 | 0.00 | 82 | 1032.6 |